FW9262 Weather Reports


time (UTC)temp
F
wind
direction
speed
knots
gust
knots
rain 1hr
in
rain 24hr
in
rain mn
in
humidity
%
barometer
mb
20260906205531 71 2 0.0 1.7 0.00 0.03 0.03 95 1016.3
20260906205027 71 33 0.9 1.7 0.00 0.03 0.03 95 1016.0
20260906204526 70 359 0.9 2.6 0.00 0.03 0.03 95 1016.0
20260906204021 70 27 0.9 3.5 0.00 0.03 0.03 95 1016.0
20260906203515 70 50 0.9 3.5 0.00 0.03 0.03 95 1016.0
20260906203010 71 29 1.7 2.6 0.00 0.03 0.03 95 1016.0
20260906202506 71 39 1.7 2.6 0.00 0.03 0.03 95 1016.6
20260906202001 70 2 0.9 1.7 0.00 0.03 0.03 95 1016.6
20260906201456 70 66 0.0 2.6 0.00 0.03 0.03 95 1016.3
20260906200956 70 41 1.7 2.6 0.00 0.03 0.03 95 1017.0
20260906200452 70 48 2.6 3.5 0.00 0.03 0.03 95 1017.0
20260906195952 70 10 0.0 1.7 0.00 0.03 0.03 95 1017.3
20260906195448 70 61 0.9 1.7 0.00 0.03 0.03 95 1017.3
20260906194944 70 89 0.9 1.7 0.00 0.03 0.03 95 1017.3
20260906194440 69 345 0.0 0.0 0.00 0.03 0.03 95 1017.6
20260906193935 69 6 0.0 0.0 0.00 0.03 0.03 95 1017.6
20260906193430 69 27 0.9 1.7 0.00 0.03 0.03 95 1017.6
20260906192925 69 353 0.9 2.6 0.00 0.03 0.03 95 1017.3
20260906192420 70 337 0.0 0.0 0.00 0.03 0.03 95 1018.3
20260906191919 70 350 0.0 0.0 0.00 0.03 0.03 95 1017.6
20260906191414 70 350 0.0 0.9 0.00 0.03 0.03 95 1017.3
20260906190908 71 343 0.0 1.7 0.00 0.03 0.03 95 1017.6
20260906190407 71 338 0.9 0.9 0.00 0.03 0.03 95 1017.6
20260906185902 70 326 0.0 0.0 0.00 0.03 0.03 95 1017.6
20260906185401 70 9 0.0 0.9 0.00 0.03 0.03 95 1017.6
20260906184901 70 356 0.0 0.0 0.00 0.03 0.03 95 1018.0
20260906184355 69 321 0.0 0.0 0.00 0.03 0.03 95 1018.7
20260906183851 69 344 0.0 0.0 0.00 0.03 0.03 95 1018.3
20260906183342 70 333 0.0 0.0 0.00 0.03 0.03 95 1018.3
20260906182841 69 344 0.0 0.0 0.00 0.03 0.03 95 1018.3
20260906182332 69 350 0.0 0.0 0.00 0.03 0.03 95 1018.3
20260906181832 69 343 0.0 0.0 0.00 0.03 0.03 95 1018.7
20260906181329 69 350 0.0 1.7 0.00 0.03 0.03 95 1018.3
20260906180823 69 34 0.0 0.9 0.00 0.03 0.03 95 1018.0
20260906180318 69 12 0.0 0.9 0.00 0.03 0.03 95 1018.7
20260906175815 69 344 0.0 0.0 0.00 0.03 0.03 95 1018.7
20260906175311 68 339 0.0 0.0 0.00 0.03 0.03 95 1018.7
20260906174810 68 29 0.9 0.9 0.00 0.03 0.03 95 1018.3
20260906174310 68 34 0.0 0.9 0.00 0.03 0.03 95 1018.3
20260906173805 68 342 0.0 0.0 0.00 0.03 0.03 95 1018.7
20260906173301 68 344 0.0 0.0 0.00 0.03 0.03 95 1018.7
20260906172759 69 347 0.0 0.0 0.00 0.03 0.03 95 1019.0
20260906172255 68 340 0.0 0.0 0.00 0.03 0.03 95 1019.0
20260906171750 68 359 0.0 0.0 0.00 0.03 0.03 95 1018.7
20260906171245 67 358 0.0 0.0 0.00 0.03 0.03 95 1018.7
20260906170741 67 338 0.0 0.0 0.00 0.03 0.03 95 1018.7
20260906170236 67 333 0.0 0.0 0.00 0.03 0.03 95 1018.7
20260906165733 67 340 0.0 0.0 0.00 0.03 0.03 95 1018.3
20260906165233 67 342 0.0 0.0 0.00 0.03 0.03 95 1018.0
20260906164732 67 349 0.0 0.9 0.00 0.03 0.03 95 1018.0
20260906164227 67 12 0.0 0.9 0.00 0.03 0.03 95 1017.6
20260906163723 66 349 0.0 0.0 0.00 0.03 0.03 95 1017.6
20260906163219 66 339 0.0 0.0 0.00 0.03 0.03 95 1017.6
20260906162715 66 345 0.0 0.0 0.00 0.03 0.03 95 1017.6
20260906162210 66 340 0.0 0.0 0.00 0.03 0.03 95 1018.0
20260906161705 66 345 0.0 0.0 0.00 0.03 0.03 95 1018.0
20260906161204 66 337 0.0 0.0 0.00 0.03 0.03 95 1018.0
20260906160703 66 268 0.9 1.7 0.07 0.03 0.03 95 1018.0
20260906160202 66 346 0.0 0.0 0.07 0.03 0.03 95 1017.6
20260906155700 66 341 0.0 0.0 0.00 0.02 0.02 95 1017.6
20260906155155 66 340 0.0 0.0 0.00 0.02 0.02 95 1017.6
20260906154651 66 342 0.0 0.0 0.00 0.02 0.02 95 1017.3
20260906154150 66 334 0.0 0.0 0.00 0.02 0.02 95 1017.3
20260906153650 66 12 0.0 0.0 0.00 0.02 0.02 95 1017.0
20260906153144 66 340 0.0 0.0 0.00 0.02 0.02 95 1016.6
20260906152639 66 348 0.0 0.0 0.00 0.02 0.02 95 1016.6
20260906152133 66 342 0.0 0.0 0.00 0.02 0.02 95 1016.6
20260906151627 66 344 0.0 0.0 0.00 0.02 0.02 95 1016.6
20260906151124 66 338 0.0 0.0 0.00 0.02 0.02 95 1016.3
20260906150619 65 349 0.0 0.0 0.00 0.02 0.02 95 1016.0
20260906150114 65 7 0.0 0.0 0.00 0.02 0.02 95 1016.3
20260906145613 65 8 0.0 0.0 0.00 0.02 0.02 95 1016.0
20260906145108 64 342 0.0 0.0 0.05 0.02 0.02 95 1016.3
20260906144602 64 344 0.0 0.0 0.00 0.01 0.01 95 1016.0
20260906144057 64 0 0.0 0.9 0.00 0.01 0.01 95 1016.0
20260906143552 64 354 0.0 0.9 0.00 0.01 0.01 95 1016.0
20260906143049 64 345 0.0 1.7 0.00 0.01 0.01 95 1016.3
20260906142542 63 293 0.0 0.9 0.00 0.01 0.01 95 1016.3
20260906142038 63 31 1.7 1.7 0.00 0.01 0.01 95 1016.3
20260906141537 63 354 0.9 1.7 0.00 0.01 0.01 95 1016.3
20260906141032 63 343 0.0 1.7 0.00 0.01 0.01 95 1016.3
20260906140531 63 356 0.0 1.7 0.00 0.01 0.01 95 1016.0
20260906140031 63 324 1.7 1.7 0.00 0.01 0.01 95 1016.0
20260906135528 63 344 0.0 1.7 0.00 0.01 0.01 95 1016.3
20260906135024 64 346 0.0 1.7 0.00 0.01 0.01 95 1016.3
20260906134519 64 297 0.0 0.0 0.00 0.01 0.01 95 1016.3
20260906134014 64 341 0.0 0.0 0.00 0.01 0.01 95 1016.3
20260906133510 64 1 0.0 0.0 0.00 0.01 0.01 94 1016.3
20260906133005 64 349 0.0 0.0 0.00 0.01 0.01 94 1016.3
20260906132500 63 354 0.0 0.0 0.00 0.01 0.01 94 1016.6
20260906131955 64 352 0.0 0.0 0.00 0.01 0.01 93 1016.6
20260906131451 64 339 0.0 0.0 0.00 0.01 0.01 93 1016.6
20260906130946 64 343 0.0 0.0 0.00 0.01 0.01 93 1016.6
20260906130445 66 342 0.0 0.0 0.00 0.01 0.01 92 1016.3
20260906125940 66 358 0.0 0.0 0.00 0.01 0.01 92 1016.3
20260906125437 67 339 0.0 0.0 0.00 0.01 0.01 92 1016.0
20260906124932 67 343 0.0 0.0 0.07 0.01 0.01 92 1016.3
20260906124428 66 333 0.0 0.0 0.07 0.01 0.01 90 1016.6
20260906123927 68 328 0.0 0.0 0.00 0.00 0.00 90 1016.6
20260906123427 68 323 0.0 0.0 0.00 0.00 0.00 89 1017.0
20260906122921 70 325 0.0 0.0 0.00 0.00 0.00 88 1016.3
20260906122416 70 327 0.0 0.0 0.00 0.00 0.00 86 1016.0
20260906121913 71 326 0.0 0.0 0.00 0.00 0.00 84 1015.3
20260906121409 71 327 0.0 0.0 0.00 0.00 0.00 82 1015.3
20260906120905 72 319 0.0 0.0 0.00 0.00 0.00 79 1015.3
20260906120400 73 307 0.0 0.0 0.00 0.00 0.00 76 1015.3
20260906115856 72 323 0.0 0.0 0.00 0.00 0.00 72 1015.3
20260906115352 71 326 0.0 0.0 0.00 0.00 0.00 73 1014.6
20260906114851 71 327 0.0 0.0 0.00 0.00 0.00 74 1014.6
20260906114346 71 328 0.0 0.0 0.00 0.00 0.00 76 1014.6
20260906113841 71 327 0.0 0.0 0.00 0.00 0.00 77 1014.9
20260906113340 71 328 0.0 0.0 0.00 0.00 0.00 78 1014.6
20260906112835 71 327 0.0 0.0 0.00 0.00 0.00 79 1014.6
20260906112332 71 328 0.0 0.0 0.00 0.00 0.00 79 1014.9
20260906111826 71 330 0.0 0.0 0.00 0.00 0.00 80 1014.9
20260906111326 71 327 0.0 0.0 0.00 0.00 0.00 80 1014.9
20260906110821 71 328 0.0 0.0 0.00 0.00 0.00 80 1014.6
20260906110317 71 327 0.0 0.0 0.00 0.00 0.00 80 1014.9
20260906105815 71 327 0.0 0.0 0.00 0.00 0.00 79 1014.6
20260906105311 71 328 0.0 0.0 0.00 0.00 0.00 79 1014.6
20260906104807 71 327 0.0 0.0 0.00 0.00 0.00 78 1014.9
20260906104306 71 330 0.0 0.0 0.00 0.00 0.00 78 1014.9
20260906103804 72 328 0.0 0.0 0.00 0.00 0.00 77 1014.6
20260906103303 72 329 0.0 0.0 0.00 0.00 0.00 77 1014.6
20260906102759 72 327 0.0 0.0 0.00 0.00 0.00 77 1014.9
20260906102258 72 327 0.0 0.0 0.00 0.00 0.00 76 1014.6
20260906101754 72 327 0.0 0.0 0.00 0.00 0.00 76 1014.6
20260906101248 72 325 0.0 0.0 0.00 0.00 0.00 76 1014.9
20260906100744 72 326 0.0 0.0 0.00 0.00 0.00 75 1014.6
20260906100243 72 326 0.0 0.0 0.00 0.00 0.00 75 1014.9
20260906095738 72 327 0.0 0.0 0.00 0.00 0.00 74 1014.6
20260906095233 72 327 0.0 0.0 0.00 0.00 0.00 75 1014.9
20260906094733 71 328 0.0 0.0 0.00 0.00 0.00 74 1014.9
20260906094228 71 325 0.0 0.0 0.00 0.00 0.00 74 1014.9
20260906093725 70 326 0.0 0.0 0.00 0.00 0.00 76 1014.9
20260906093220 70 326 0.0 0.0 0.00 0.00 0.00 77 1014.9
20260906092715 70 327 0.0 0.0 0.00 0.00 0.00 79 1014.9
20260906092214 70 326 0.0 0.0 0.00 0.00 0.00 80 1014.6
20260906091711 70 326 0.0 0.0 0.00 0.00 0.00 81 1014.9
20260906091207 71 328 0.0 0.0 0.00 0.00 0.00 83 1014.9
20260906090703 71 329 0.0 0.0 0.00 0.00 0.00 83 1014.6
20260906090202 71 329 0.0 0.0 0.00 0.00 0.00 83 1014.9
20260906085701 71 327 0.0 0.0 0.00 0.00 0.00 84 1014.6
20260906085200 71 330 0.0 0.0 0.00 0.00 0.00 84 1014.9
20260906084655 71 331 0.0 0.0 0.00 0.00 0.00 84 1014.9
20260906084155 71 327 0.0 0.0 0.00 0.00 0.00 85 1014.9
20260906083649 71 330 0.0 0.0 0.00 0.00 0.00 85 1014.9
20260906083145 71 328 0.0 0.0 0.00 0.00 0.00 86 1014.9
20260906082640 70 330 0.0 0.0 0.00 0.00 0.00 86 1014.9
20260906082136 70 329 0.0 0.0 0.00 0.00 0.00 86 1014.9
20260906081632 70 331 0.0 0.0 0.00 0.00 0.00 87 1014.9
20260906081126 70 328 0.0 0.0 0.00 0.00 0.00 87 1014.9
20260906080623 70 330 0.0 0.0 0.00 0.00 0.00 87 1014.9
20260906080119 70 331 0.0 0.0 0.00 0.00 0.00 88 1014.9
20260906075618 70 331 0.0 0.0 0.00 0.00 0.00 88 1014.9
20260906075113 70 331 0.0 0.0 0.00 0.00 0.00 88 1015.3
20260906074609 70 329 0.0 0.0 0.00 0.00 0.00 88 1015.3
20260906074108 70 329 0.0 0.0 0.00 0.00 0.00 88 1015.3
20260906073608 70 330 0.0 0.0 0.00 0.00 0.00 88 1014.9
20260906073104 70 328 0.0 0.0 0.00 0.00 0.00 88 1015.3
20260906072558 70 329 0.0 0.0 0.00 0.00 0.00 88 1015.3
20260906072054 70 328 0.0 0.0 0.00 0.00 0.00 88 1014.9
20260906071550 70 328 0.0 0.0 0.00 0.00 0.00 88 1014.9
20260906071039 70 327 0.0 0.0 0.00 0.00 0.00 88 1014.9
20260906070536 70 328 0.0 0.0 0.00 0.00 0.00 88 1014.9
20260906070032 70 328 0.0 0.0 0.00 0.00 0.00 88 1015.3
20260906065531 70 327 0.0 0.0 0.00 0.00 0.00 88 1014.9
20260906065027 70 327 0.0 0.0 0.00 0.00 0.00 88 1014.9
20260906064522 70 330 0.0 0.0 0.00 0.00 0.00 88 1014.9
20260906064017 70 330 0.0 0.0 0.00 0.00 0.00 87 1014.9
20260906063512 70 328 0.0 0.0 0.00 0.00 0.00 87 1014.9
20260906063008 70 327 0.0 0.0 0.00 0.00 0.00 87 1014.9
20260906062503 70 327 0.0 0.0 0.00 0.00 0.00 87 1014.9
20260906061957 70 327 0.0 0.0 0.00 0.00 0.00 87 1015.3
20260906061453 70 327 0.0 0.0 0.00 0.00 0.00 87 1015.3
20260906060947 71 326 0.0 0.0 0.00 0.00 0.00 86 1015.3
20260906060444 71 326 0.0 0.0 0.00 0.00 0.00 86 1014.9
20260906055941 71 326 0.0 0.0 0.00 0.00 0.00 86 1014.9
20260906055436 71 326 0.0 0.0 0.00 0.00 0.00 86 1015.3
20260906054932 71 327 0.0 0.0 0.00 0.00 0.00 86 1015.3
20260906054426 71 326 0.0 0.0 0.00 0.00 0.00 86 1015.3
20260906053922 72 322 0.0 0.0 0.00 0.00 0.00 86 1015.3
20260906053418 72 317 0.0 0.0 0.00 0.00 0.00 85 1015.3
20260906052914 72 284 0.0 0.0 0.00 0.00 0.00 85 1015.3
20260906052410 72 319 0.0 0.0 0.00 0.00 0.00 85 1015.3
20260906051907 72 319 0.0 0.0 0.00 0.00 0.00 84 1015.6
20260906051406 72 321 0.0 0.0 0.00 0.00 0.00 84 1015.6
20260906050902 72 318 0.0 0.0 0.00 0.00 0.00 83 1015.3
20260906050357 73 311 0.0 0.0 0.00 0.00 0.00 83 1015.3
20260906045855 72 317 0.0 0.0 0.00 0.00 0.00 82 1015.3
20260906045349 72 314 0.0 0.0 0.00 0.00 0.00 81 1015.3
20260906044846 73 318 0.0 0.0 0.00 0.00 0.00 81 1015.3
20260906044346 73 319 0.0 0.0 0.00 0.00 0.00 81 1015.3
20260906043842 73 319 0.0 0.0 0.00 0.00 0.00 80 1015.3
20260906043338 73 317 0.0 0.0 0.00 0.00 0.00 80 1015.3
20260906042833 72 320 0.0 0.0 0.00 0.00 0.00 80 1015.6
20260906042331 72 322 0.0 0.0 0.00 0.00 0.00 80 1015.6
20260906041827 72 322 0.0 0.0 0.00 0.00 0.00 79 1015.6
20260906041323 73 321 0.0 0.0 0.00 0.00 0.00 79 1015.3
20260906040823 73 319 0.0 0.0 0.00 0.00 0.00 79 1015.6
20260906040318 73 321 0.0 0.0 0.00 0.00 0.00 79 1015.3
20260906035813 73 320 0.0 0.0 0.00 0.00 0.00 78 1015.3
20260906035308 73 322 0.0 0.0 0.00 0.00 0.00 77 1015.3
20260906034803 73 323 0.0 0.0 0.00 0.00 0.00 76 1014.9
20260906034258 73 322 0.0 0.0 0.00 0.00 0.00 76 1014.9
20260906033754 73 320 0.0 0.0 0.00 0.00 0.00 75 1014.9
20260906033253 73 310 0.0 0.0 0.00 0.00 0.00 75 1014.9
20260906032750 73 317 0.0 0.0 0.00 0.00 0.00 74 1014.9
20260906032250 73 324 0.0 0.0 0.00 0.00 0.00 74 1014.9
20260906031745 74 292 0.0 0.9 0.00 0.00 0.00 73 1014.9
20260906031241 74 321 0.0 0.0 0.00 0.00 0.00 74 1014.6
20260906030740 74 319 0.0 0.0 0.00 0.00 0.00 74 1014.9
20260906030236 74 299 0.9 2.6 0.00 0.00 0.00 73 1014.6
20260906025735 74 289 0.9 0.9 0.00 0.00 0.00 72 1014.9
20260906025229 74 336 0.0 0.0 0.00 0.00 0.00 72 1014.6
20260906024728 74 349 0.0 0.9 0.00 0.00 0.00 72 1014.6
20260906024228 74 324 0.9 1.7 0.00 0.00 0.00 72 1014.6
20260906023724 75 269 1.7 1.7 0.00 0.00 0.00 71 1014.9
20260906023219 75 296 0.9 0.9 0.00 0.00 0.00 69 1014.9
20260906022714 75 333 0.9 1.7 0.00 0.00 0.00 68 1014.9
20260906022209 75 334 0.9 1.7 0.00 0.00 0.00 66 1014.9
20260906021706 75 328 0.0 1.7 0.00 0.00 0.00 64 1014.9
20260906021204 75 281 1.7 2.6 0.00 0.00 0.00 63 1014.9
20260906020659 76 325 0.9 1.7 0.00 0.00 0.00 63 1014.9
20260906020154 76 308 1.7 2.6 0.00 0.00 0.00 61 1014.9
20260906015648 76 319 0.9 2.6 0.00 0.00 0.00 61 1014.6
20260906015147 77 301 0.9 3.5 0.00 0.00 0.00 61 1014.6
20260906014647 77 338 0.0 0.9 0.00 0.00 0.00 64 1014.6
20260906014143 77 324 0.0 2.6 0.00 0.00 0.00 62 1014.6
20260906013638 77 256 2.6 3.5 0.00 0.00 0.00 64 1014.9
20260906013134 77 307 2.6 6.1 0.00 0.00 0.00 61 1014.9
20260906012633 78 236 2.6 3.5 0.00 0.00 0.00 62 1014.9
20260906012128 78 344 1.7 5.2 0.00 0.00 0.00 63 1014.9
20260906011624 78 332 0.9 1.7 0.00 0.00 0.00 62 1014.9
20260906011119 79 340 0.9 3.5 0.00 0.00 0.00 60 1014.9
20260906010614 78 261 1.7 3.5 0.00 0.00 0.00 56 1014.6
20260906010110 79 178 3.5 5.2 0.00 0.00 0.00 52 1014.6
20260906005610 79 311 1.7 1.7 0.00 0.00 0.00 52 1014.6
20260906005109 79 278 1.7 2.6 0.00 0.00 0.00 54 1014.6
20260906004608 79 300 1.7 3.5 0.00 0.00 0.00 54 1014.6
20260906004103 79 212 1.7 3.5 0.00 0.00 0.00 52 1014.6
20260906003558 79 183 1.7 3.5 0.00 0.00 0.00 53 1014.6
20260906003054 79 16 1.7 2.6 0.00 0.00 0.00 52 1014.6
20260906002549 78 295 0.9 2.6 0.00 0.00 0.00 58 1014.6
20260906002044 79 263 2.6 2.6 0.00 0.00 0.00 63 1014.6
20260906001539 81 271 1.7 3.5 0.00 0.00 0.00 60 1014.6
20260906001033 80 235 3.5 5.2 0.00 0.00 0.00 63 1014.9
20260906000529 80 263 2.6 5.2 0.00 0.00 0.00 63 1014.9
20260906000024 80 261 1.7 6.1 0.00 0.00 0.00 62 1014.6
20260905235518 81 278 3.5 5.2 0.00 0.00 0.00 60 1014.6
20260905235013 80 218 1.7 3.5 0.00 0.00 0.00 61 1014.6
20260905234508 80 240 2.6 6.1 0.00 0.00 0.00 63 1014.6
20260905234002 80 309 3.5 5.2 0.00 0.00 0.00 64 1014.6
20260905233458 79 298 3.5 5.2 0.00 0.00 0.00 65 1014.6
20260905232956 80 1 1.7 3.5 0.00 0.00 0.00 64 1014.6
20260905232453 80 248 1.7 6.1 0.00 0.00 0.00 63 1014.6
20260905231948 81 255 3.5 5.2 0.00 0.00 0.00 63 1014.9
20260905231444 80 293 1.7 3.5 0.00 0.00 0.00 64 1014.9
20260905230940 80 278 2.6 5.2 0.00 0.00 0.00 63 1014.9
20260905230438 82 253 1.7 5.2 0.00 0.00 0.00 62 1014.6
20260905225937 81 307 1.7 5.2 0.00 0.00 0.00 63 1014.9
20260905225432 82 348 1.7 6.1 0.00 0.00 0.00 61 1014.6
20260905224927 81 284 3.5 6.1 0.00 0.00 0.00 62 1014.9
20260905224423 82 210 3.5 3.5 0.00 0.00 0.00 61 1014.9
20260905223922 81 248 4.3 5.2 0.00 0.00 0.00 63 1014.9
20260905223421 82 246 3.5 6.1 0.00 0.00 0.00 62 1014.9
20260905222920 81 248 3.5 5.2 0.00 0.00 0.00 62 1014.9
20260905222420 82 262 2.6 3.5 0.00 0.00 0.00 62 1014.9
20260905221916 83 218 1.7 5.2 0.00 0.00 0.00 60 1014.9
20260905221413 82 301 0.9 5.2 0.00 0.00 0.00 62 1015.3
20260905220909 81 225 3.5 5.2 0.00 0.00 0.00 63 1014.9
20260905220404 81 264 1.7 5.2 0.00 0.00 0.00 62 1014.9
20260905215903 82 269 2.6 3.5 0.00 0.00 0.00 61 1015.6
20260905215359 82 224 3.5 3.5 0.00 0.00 0.00 61 1015.3
20260905214855 83 271 2.6 6.1 0.00 0.00 0.00 60 1015.3
20260905214350 82 207 3.5 5.2 0.00 0.00 0.00 60 1015.3
20260905213845 82 226 3.5 3.5 0.00 0.00 0.00 60 1015.3
20260905213341 84 255 3.5 3.5 0.00 0.00 0.00 57 1015.6
20260905212836 82 310 1.7 2.6 0.00 0.00 0.00 60 1015.6
20260905212336 84 251 4.3 6.1 0.00 0.00 0.00 59 1015.6
20260905211830 84 276 3.5 5.2 0.00 0.00 0.00 58 1015.6
20260905211326 82 258 2.6 5.2 0.00 0.00 0.00 61 1015.6
20260905210822 83 299 3.5 5.2 0.00 0.00 0.00 59 1016.0
20260905210322 82 238 1.7 5.2 0.00 0.00 0.00 61 1016.0